Weather History for KPOE - October, 2012

Change the Weather History Date:

Thursday, October 4, 2012

  Actual Average Record
Temperature  
Mean Temperature 70 °F -  
Max Temperature 84 °F - - ()
Min Temperature 57 °F - - ()
Cooling Degree Days 6    
Growing Degree Days 20 (Base 50)    
Moisture  
Dew Point 62 °F    
Average Humidity 81    
Maximum Humidity 100    
Minimum Humidity 43    
Precipitation  
Precipitation 0.00 in - - ()
Sea Level Pressure  
Sea Level Pressure 30.16 in    
Wind  
Wind Speed 3 mph (SE)    
Max Wind Speed 14 mph    
Max Gust Speed -    
Visibility 8 miles    
Events Fog    
T = Trace of Precipitation, MM = Missing Value Source: NWS Daily Summary

Daily Weather History Graph

Daily Weather History Graph

Search for Another Location

Airport or City:

Trip Planner

Search our weather history database for the weather conditions in past years. The results will help you decide how hot, cold, wet, or windy it might be!

Date:

Astronomy

Oct. 04, 2012 Rise Set
Actual Time 7:08 AM CDT 6:53 PM CDT
Civil Twilight 6:44 AM CDT 7:17 PM CDT
Nautical Twilight 6:16 AM CDT 7:45 PM CDT
Astronomical Twilight 5:48 AM CDT 8:13 PM CDT
Moon 9:47 PM CDT (10/4) 11:08 AM CDT (10/4)
Length of Visible Light 12h 33m
Length of Day
11h 44m
Waning Gibbous, 82% of the Moon is Illuminated
Oct 4
Waning Gibbous
Oct 8
Last Quarter
Oct 15
New
Oct 21
First Quarter
Oct 29
Full

Hourly Weather History & Observations

Time (CDT) Temp. Heat Index Dew Point Humidity Pressure Visibility Wind Dir Wind Speed Gust Speed Precip Events Conditions
12:55 AM 61.0 °F - 59.0 °F 93% 30.11 in 10.0 mi Calm Calm - N/A   Clear
1:55 AM 61.0 °F - 57.9 °F 90% 30.11 in 10.0 mi Calm Calm - N/A   Clear
2:55 AM 59.0 °F - 57.0 °F 93% 30.12 in 7.0 mi Calm Calm - N/A   Clear
3:55 AM 59.0 °F - 57.0 °F 93% 30.12 in 10.0 mi Calm Calm - N/A   Clear
4:55 AM 59.0 °F - 57.0 °F 93% 30.14 in 10.0 mi Calm Calm - N/A   Clear
5:55 AM 59.0 °F - 55.9 °F 90% 30.15 in 9.0 mi Calm Calm - N/A   Clear
6:55 AM 59.0 °F - 55.9 °F 90% 30.16 in 10.0 mi East 3.5 mph - N/A   Clear
7:26 AM 57.2 °F - 55.4 °F 94% 30.16 in 8.0 mi Calm Calm - N/A   Scattered Clouds
7:35 AM 60.8 °F - 59.0 °F 94% 30.16 in 8.0 mi Calm Calm - N/A   Mostly Cloudy
7:45 AM 62.6 °F - 60.8 °F 94% 30.16 in 2.5 mi ESE 3.5 mph - N/A   Overcast
7:55 AM 64.0 °F - 62.1 °F 93% 30.17 in 1.2 mi Calm Calm - N/A   Overcast
7:57 AM 62.6 °F - 62.6 °F 100% 30.16 in 0.8 mi Variable 3.5 mph - N/A   Overcast
8:10 AM 64.4 °F - 62.6 °F 94% 30.17 in 0.2 mi ESE 3.5 mph - N/A Fog Fog
8:48 AM 66.2 °F - 64.4 °F 94% 30.18 in 0.2 mi ESE 6.9 mph - N/A Fog Fog
8:55 AM 66.0 °F - 64.9 °F 96% 30.19 in 0.8 mi ESE 5.8 mph - N/A   Mist
9:00 AM 66.2 °F - 64.4 °F 94% 30.18 in 1.2 mi SE 6.9 mph - N/A   Overcast
9:04 AM 66.2 °F - 64.4 °F 94% 30.18 in 2.0 mi SE 4.6 mph - N/A   Overcast
9:13 AM 66.2 °F - 66.2 °F 100% 30.19 in 5.0 mi ESE 5.8 mph - N/A   Mostly Cloudy
9:24 AM 68.0 °F - 66.2 °F 94% 30.19 in 8.0 mi ESE 5.8 mph - N/A   Scattered Clouds
9:55 AM 70.0 °F - 66.0 °F 87% 30.20 in 10.0 mi SE 9.2 mph - N/A   Clear
10:55 AM 79.0 °F - 66.0 °F 64% 30.21 in 10.0 mi SE 13.8 mph - N/A   Clear
11:55 AM 81.0 °F 82.7 °F 64.9 °F 58% 30.20 in 10.0 mi SSE 5.8 mph - N/A   Scattered Clouds
12:55 PM 82.0 °F 83.1 °F 63.0 °F 52% 30.18 in 10.0 mi SE 9.2 mph - N/A   Mostly Cloudy
1:55 PM 84.9 °F 85.4 °F 62.1 °F 46% 30.16 in 10.0 mi SE 8.1 mph - N/A   Partly Cloudy
2:55 PM 84.9 °F 85.0 °F 61.0 °F 44% 30.14 in 10.0 mi ESE 8.1 mph - N/A   Mostly Cloudy
3:55 PM 82.9 °F 83.2 °F 60.1 °F 46% 30.14 in 10.0 mi South 5.8 mph - N/A   Clear
4:55 PM 84.9 °F 84.8 °F 60.1 °F 43% 30.13 in 10.0 mi South 9.2 mph - N/A   Clear
5:55 PM 82.0 °F 83.0 °F 62.1 °F 51% 30.13 in 10.0 mi SSE 8.1 mph - N/A   Clear
6:55 PM 77.0 °F - 63.0 °F 62% 30.13 in 10.0 mi SSE 4.6 mph - N/A   Clear
7:55 PM 73.0 °F - 64.0 °F 73% 30.14 in 10.0 mi Calm Calm - N/A   Clear
8:55 PM 71.1 °F - 64.0 °F 78% 30.14 in 10.0 mi SSE 4.6 mph - N/A   Clear
9:55 PM 73.0 °F - 64.9 °F 76% 30.15 in 10.0 mi Calm Calm - N/A   Clear
10:55 PM 68.0 °F - 64.0 °F 87% 30.15 in 10.0 mi Calm Calm - N/A   Clear
11:55 PM 66.9 °F - 64.0 °F 90% 30.15 in 10.0 mi Calm Calm - N/A   Clear